Hourly Data Report for July 27, 2004

SHERBROOKE A
QUEBEC

45°26'00.000" N
71°41'00.000" W
241.40 m
7028124
71610
YSC

Download Data

Hourly Data (July 2004)
Hourly Data Report for July 27, 2004
TIME
LST
Temp Definition
°C
Dew Point Definition
°C
Rel Hum Definition
%
Precip. Amount Definition
mm

Wind Dir Definition
10's deg

Wind Spd Definition
km/h
Visibility Definition
km
Stn Press Definition
kPa
Hmdx Definition


Wind Chill Definition


Weather Definition


00:00 13.2 12.2 94   10 7 15.0 99.19      
01:00 12.5 11.6 94   9 6 15.0 99.19      
02:00 12.0 11.1 94   5 6 15.0 99.19      
03:00 11.4 10.6 95   8 4 15.0 99.18      
04:00 11.4 10.5 94   10 7 15.0 99.18      
05:00 11.5 10.6 94   8 7 15.0 99.21      
06:00 12.4 11.3 93   9 6 15.0 99.20      
07:00 12.9 11.7 92   9 6 24.1 99.23     Cloudy
08:00 13.8 12.3 91   9 9 24.1 99.24     Cloudy
09:00 15.2 12.5 84   6 6 24.1 99.25     Cloudy
10:00 17.4 13.8 79   8 4 24.1 99.22     Cloudy
11:00 19.2 13.8 71   11 6 24.1 99.16     Mostly Cloudy
12:00 21.4 14.0 63   22 4 24.1 99.11 25   Cloudy
13:00 21.6 15.1 67   31 9 24.1 99.10 26   Cloudy
14:00 22.2 15.6 66   35 4 24.1 99.08 27   Cloudy
15:00 22.5 15.2 63   14 4 24.1 99.04 27   Cloudy
16:00 21.1 16.1 73   16 4 24.1 99.00 26   Cloudy
17:00 20.8 16.6 77     0 15.0 98.99 26    
18:00 19.9 16.4 80   18 4 15.0 98.93      
19:00 19.5 15.7 79   19 4 15.0 98.95      
20:00 18.2 15.5 84   26 4 15.0 98.98      
21:00 17.2 15.5 90   27 4 15.0 98.95      
22:00 17.3 15.4 89   23 4 15.0 98.94      
23:00 16.7 15.1 90   25 7 15.0 98.94      

Notes on Data Quality.

Legend

  • E = Estimated
  • M = Missing
  • NA = Not Available*
  • [empty] = Indicates an unobserved value
Date modified: